sat.trackr.live / text

‹ back to catalog

STARLINK-3362

NORAD 51108 · 2022-005E

PAYLOAD ACTIVE UNKNOWN

§ Identity

Operator
Country
US
Launch date
2022-01-19
Launch site
AFETR
Launch vehicle
Mass (kg)
RCS (m²)

Purposes: comms

External: N2YO · Heavens-Above · Gunter

§ Orbital elements

Epoch: 2026-05-25T03:37:37.938720Z

Period
95.44 min
Inclination
53.2139°
Eccentricity
0.0001435
Mean motion
15.08832896 rev/d
Perigee alt
538.8 km
Apogee alt
540.8 km
Semi-major
6,917.9 km
B*
4.2615e-6
RAAN
305.8718°
Arg perigee
93.1521°
Mean anomaly
266.9635°
Rev number
24,042

§ Raw data

STARLINK-33621 51108U 22005E   26145.15113355 -.00000220  00000+0  42615-5 0  99932 51108  53.2139 305.8718 0001435  93.1521 266.9635 15.08832896240425

JSON: /api/v1/satellites/51108 · /tle

For live sub-satellite position, see the globe view (requires WebGL).

§ Visibility from observer

Set your observer location to see the next 7 days of passes ≥ 10°. The values pass through the URL so the page stays shareable.

No JS? Fill the form by hand. The geolocation button needs JavaScript.